Погода в Чонтауле

Россия / Республика Дагестан     43°18′13″N   46°51′34″E
темп.,
°C
ветер,
м/с
пор.,
м/с
влажн.,
%
обл.,
%
осадки,
мм/ч
давл.,
гПа
погр.,
м
9 мая, вс
вс900:00+13в22893 0.0 101136
03:00+11в2294100 0.0 100934
06:00+14всв1186100 0.0 100882
09:00+18сз227197 0.0 1008438
12:00+23сз446322 0.0 10061088
15:00+24зсз6755100 0.0 10051510
18:00+17з141783100 0.8 1010976
21:00+9з131986100 2.8 10171070
10 мая, пн
пн1000:00+7з121887100 0.2 10191115
03:00+8з121775100 0.3 10201236
06:00+9з101669100 0.1 10201398
09:00+10з91270100 0.6 10221299
12:00+15зсз9114372 0.0 10202458
15:00+16зсз574165 0.0 10192313
18:00+13юз45575 0.0 1019200
21:00+9юз336664 0.0 102139
11 мая, вт
вт1100:00+8юз226787 0.0 102017
03:00+7ссз11755 0.0 101910
06:00+8вюв11725 0.0 102094
09:00+14в7105619 0.0 10181518
12:00+17в994150 0.0 10161690
15:00+17в994720 0.0 10161296
18:00+13в71063100 0.0 1017509
21:00+10вюв477939 0.0 1018129
12 мая, ср
ср1200:00+9вюв34860 0.0 101871
03:00+8вюв22900 0.0 101726
06:00+10ююв11802 0.0 101888
09:00+16в45600 0.0 1017964
12:00+19в55500 0.0 10171288
15:00+19в55530 0.0 10171077
18:00+15в46660 0.0 1017302
21:00+12вюв23780 0.0 101837
13 мая, чт
чт1300:00+11вюв22845 0.0 101716
03:00+10в22875 0.0 101716
06:00+12в238261 0.0 1017105
09:00+18всв336318 0.0 1017571
12:00+23в45520 0.0 1016946
15:00+22в77560 0.0 1015721
18:00+18всв47700 0.0 1016262
21:00+13в129140 0.0 101720